• In Latvia
  • List of Countries
  • For 7 days
  • Water Temperature
  • Satellite Maps
  • Weather Map
  • Weather Widgets
  • user-avatar
    Login

    Hourly Weather Canillo

    Today, 24 October, Wednesday

    Time Temperature Precipitation Wind Pressure Humidity
    00:00 +3°C° 0 mm 3 mps 624 mmHg 45%
    01:00 +3°C° 0 mm 3 mps 624 mmHg 43%
    02:00 +3°C° 0 mm 3 mps 623 mmHg 42%
    03:00 +3°C° 0 mm 3 mps 623 mmHg 40%
    04:00 +3°C° 0 mm 3 mps 623 mmHg 39%
    05:00 +3°C° 0 mm 3 mps 623 mmHg 38%
    06:00 +3°C° 0 mm 3 mps 623 mmHg 38%
    07:00 +5°C° 0 mm 3 mps 624 mmHg 37%
    08:00 +8°C° 0 mm 3 mps 625 mmHg 36%
    09:00 +11°C° 0 mm 3 mps 625 mmHg 36%
    10:00 +12°C° 0 mm 3 mps 626 mmHg 36%
    11:00 +13°C° 0 mm 3 mps 626 mmHg 37%
    12:00 +14°C° 0 mm 4 mps 626 mmHg 37%
    13:00 +14°C° 0 mm 4 mps 626 mmHg 40%
    14:00 +14°C° 0 mm 4 mps 625 mmHg 42%
    15:00 +13°C° 0 mm 3 mps 624 mmHg 45%
    16:00 +11°C° 0 mm 3 mps 624 mmHg 51%
    17:00 +9°C° 0 mm 3 mps 623 mmHg 57%
    18:00 +7°C° 0 mm 3 mps 622 mmHg 64%
    19:00 +5°C° 0 mm 3 mps 622 mmHg 63%
    20:00 +5°C° 0 mm 3 mps 622 mmHg 62%
    21:00 +5°C° 0 mm 3 mps 622 mmHg 62%
    22:00 +5°C° 0 mm 3 mps 621 mmHg 63%
    23:00 +5°C° 0 mm 3 mps 621 mmHg 64%

    Tomorrow, 25 October, Thursday

    Time Temperature Precipitation Wind Pressure Humidity
    00:00 +4°C° 0 mm 3 mps 621 mmHg 66%
    01:00 +5°C° 0 mm 2 mps 621 mmHg 66%
    02:00 +5°C° 0 mm 2 mps 621 mmHg 66%
    03:00 +5°C° 0 mm 2 mps 621 mmHg 66%
    04:00 +5°C° 0 mm 2 mps 620 mmHg 65%
    05:00 +5°C° 0 mm 2 mps 620 mmHg 64%
    06:00 +5°C° 0 mm 2 mps 620 mmHg 63%
    07:00 +7°C° 0 mm 2 mps 621 mmHg 57%
    08:00 +11°C° 0 mm 1 mps 622 mmHg 51%
    09:00 +13°C° 0 mm 1 mps 623 mmHg 45%
    10:00 +14°C° 0 mm 1 mps 623 mmHg 42%
    11:00 +15°C° 0 mm 1 mps 624 mmHg 39%
    12:00 +18°C° 0 mm 1 mps 624 mmHg 36%
    13:00 +16°C° 0 mm 1 mps 623 mmHg 39%
    14:00 +16°C° 0 mm 1 mps 623 mmHg 43%
    15:00 +15°C° 0 mm 1 mps 622 mmHg 46%
    16:00 +13°C° 0 mm 1 mps 621 mmHg 55%
    17:00 +10°C° 0 mm 1 mps 620 mmHg 64%
    18:00 +8°C° 0 mm 1 mps 619 mmHg 74%
    19:00 +8°C° 0 mm 1 mps 619 mmHg 73%
    20:00 +8°C° 0 mm 1 mps 619 mmHg 73%
    21:00 +7°C° 0 mm 1 mps 619 mmHg 72%
    22:00 +7°C° 0 mm 1 mps 619 mmHg 71%
    23:00 +7°C° 0 mm 1 mps 619 mmHg 71%

    Day after tomorrow, 26 October, Friday

    Time Temperature Precipitation Wind Pressure Humidity
    00:00 +7°C° 0 mm 1 mps 618 mmHg 70%
    01:00 +7°C° 0 mm 1 mps 618 mmHg 69%
    02:00 +6°C° 0 mm 1 mps 618 mmHg 69%
    03:00 +6°C° 0 mm 1 mps 618 mmHg 69%
    04:00 +6°C° 0 mm 1 mps 618 mmHg 68%
    05:00 +6°C° 0 mm 1 mps 617 mmHg 68%
    06:00 +6°C° 0 mm 1 mps 617 mmHg 67%
    07:00 +8°C° 0 mm 1 mps 618 mmHg 61%
    08:00 +10°C° 0 mm 1 mps 619 mmHg 55%
    09:00 +11°C° 0 mm 0 mps 620 mmHg 49%
    10:00 +13°C° 0 mm 1 mps 620 mmHg 47%
    11:00 +14°C° 0 mm 1 mps 620 mmHg 45%
    12:00 +14°C° 0 mm 2 mps 620 mmHg 43%
    13:00 +14°C° 0 mm 1 mps 620 mmHg 46%
    14:00 +13°C° 0 mm 1 mps 619 mmHg 50%
    15:00 +13°C° 0 mm 1 mps 618 mmHg 54%
    16:00 +11°C° 0 mm 1 mps 618 mmHg 61%
    17:00 +9°C° 0 mm 1 mps 617 mmHg 69%
    18:00 +6°C° 0 mm 0 mps 616 mmHg 76%
    19:00 +6°C° 0 mm 0 mps 616 mmHg 75%
    20:00 +6°C° 0 mm 0 mps 616 mmHg 75%
    21:00 +7°C° 0 mm 1 mps 616 mmHg 74%
    22:00 +7°C° 0 mm 1 mps 616 mmHg 74%
    23:00 +7°C° 0 mm 1 mps 616 mmHg 75%

    27 October, Saturday

    Time Temperature Precipitation Wind Pressure Humidity
    00:00 +7°C° 0 mm 1 mps 615 mmHg 75%
    01:00 +6°C° 0.2 mm 1 mps 615 mmHg 77%
    02:00 +6°C° 0.2 mm 1 mps 615 mmHg 80%
    03:00 +6°C° 0.2 mm 1 mps 614 mmHg 82%
    04:00 +6°C° 0.4 mm 1 mps 614 mmHg 84%
    05:00 +5°C° 0.4 mm 1 mps 614 mmHg 86%
    06:00 +4°C° 0.4 mm 2 mps 614 mmHg 88%
    07:00 +4°C° 0.4 mm 2 mps 614 mmHg 88%
    08:00 +3°C° 0.4 mm 2 mps 614 mmHg 87%
    09:00 +3°C° 0.4 mm 2 mps 614 mmHg 86%
    10:00 +2°C° 0.7 mm 3 mps 614 mmHg 86%
    11:00 +2°C° 0.7 mm 3 mps 613 mmHg 85%
    12:00 +2°C° 0.7 mm 3 mps 613 mmHg 85%
    13:00 +1°C° 2.4 mm 3 mps 612 mmHg 87%
    14:00 0°C° 2.4 mm 3 mps 611 mmHg 89%
    15:00 -1°C° 2.4 mm 3 mps 611 mmHg 92%
    16:00 -2°C° 1.9 mm 3 mps 610 mmHg 92%
    17:00 -2°C° 1.9 mm 3 mps 610 mmHg 91%
    18:00 -4°C° 1.9 mm 4 mps 610 mmHg 91%
    19:00 -5°C° 1.3 mm 4 mps 609 mmHg 90%
    20:00 -5°C° 1.3 mm 4 mps 609 mmHg 89%
    21:00 -7°C° 1.3 mm 4 mps 609 mmHg 88%
    22:00 -7°C° 0.8 mm 4 mps 608 mmHg 88%
    23:00 -8°C° 0.8 mm 4 mps 608 mmHg 88%

    28 October, Sunday

    Time Temperature Precipitation Wind Pressure Humidity
    00:00 -8°C° 0.8 mm 4 mps 608 mmHg 88%
    01:00 -8°C° 0.4 mm 4 mps 607 mmHg 88%
    02:00 -8°C° 0.4 mm 4 mps 607 mmHg 88%
    03:00 -8°C° 0.4 mm 4 mps 607 mmHg 88%
    04:00 -8°C° 0.2 mm 4 mps 607 mmHg 87%
    05:00 -9°C° 0.2 mm 4 mps 606 mmHg 87%
    06:00 -9°C° 0.2 mm 4 mps 606 mmHg 87%
    07:00 -8°C° 0.2 mm 4 mps 606 mmHg 85%
    08:00 -8°C° 0.2 mm 4 mps 606 mmHg 84%
    09:00 -8°C° 0.2 mm 4 mps 606 mmHg 82%
    10:00 -7°C° 0.1 mm 4 mps 606 mmHg 80%
    11:00 -7°C° 0.1 mm 4 mps 606 mmHg 78%
    12:00 -5°C° 0.1 mm 4 mps 606 mmHg 76%
    13:00 -5°C° 0.1 mm 4 mps 606 mmHg 76%
    14:00 -5°C° 0.1 mm 4 mps 606 mmHg 76%
    15:00 -7°C° 0.1 mm 4 mps 605 mmHg 76%
    16:00 -7°C° 0.1 mm 4 mps 605 mmHg 78%
    17:00 -8°C° 0.1 mm 4 mps 605 mmHg 81%
    18:00 -9°C° 0.1 mm 4 mps 604 mmHg 83%
    19:00 -9°C° 0.1 mm 4 mps 605 mmHg 83%
    20:00 -9°C° 0.1 mm 4 mps 605 mmHg 84%
    21:00 -9°C° 0.1 mm 4 mps 605 mmHg 84%
    22:00 -9°C° 0.1 mm 4 mps 604 mmHg 84%
    23:00 -8°C° 0.1 mm 3 mps 604 mmHg 84%

    29 October, Monday

    Time Temperature Precipitation Wind Pressure Humidity
    00:00 -8°C° 0.1 mm 3 mps 604 mmHg 84%
    01:00 -8°C° 0.1 mm 3 mps 604 mmHg 84%
    02:00 -9°C° 0.1 mm 4 mps 604 mmHg 83%
    03:00 -9°C° 0.1 mm 4 mps 603 mmHg 83%
    04:00 -8°C° 0.3 mm 3 mps 603 mmHg 84%
    05:00 -8°C° 0.3 mm 3 mps 603 mmHg 84%
    06:00 -8°C° 0.3 mm 3 mps 603 mmHg 85%
    07:00 -8°C° 0.6 mm 3 mps 603 mmHg 85%
    08:00 -7°C° 0.6 mm 3 mps 603 mmHg 85%
    09:00 -7°C° 0.6 mm 3 mps 603 mmHg 85%
    10:00 -7°C° 0.8 mm 3 mps 604 mmHg 85%
    11:00 -6°C° 0.8 mm 3 mps 604 mmHg 86%
    12:00 -5°C° 0.8 mm 2 mps 604 mmHg 86%
    13:00 -5°C° 0.3 mm 2 mps 604 mmHg 85%
    14:00 -5°C° 0.3 mm 2 mps 604 mmHg 84%
    15:00 -5°C° 0.3 mm 2 mps 604 mmHg 83%
    16:00 -6°C° 0.2 mm 2 mps 604 mmHg 85%
    17:00 -6°C° 0.2 mm 2 mps 604 mmHg 87%
    18:00 -7°C° 0.2 mm 2 mps 604 mmHg 89%
    19:00 -7°C° 0.4 mm 2 mps 604 mmHg 89%
    20:00 -7°C° 0.4 mm 2 mps 604 mmHg 89%
    21:00 -7°C° 0.4 mm 2 mps 604 mmHg 89%
    22:00 -7°C° 0.2 mm 2 mps 604 mmHg 89%
    23:00 -8°C° 0.2 mm 2 mps 604 mmHg 89%

    30 October, Tuesday

    Time Temperature Precipitation Wind Pressure Humidity
    00:00 -8°C° 0.2 mm 2 mps 604 mmHg 89%
    01:00 -8°C° 0.1 mm 2 mps 604 mmHg 89%
    02:00 -8°C° 0.1 mm 2 mps 604 mmHg 89%
    03:00 -8°C° 0.1 mm 2 mps 604 mmHg 89%
    04:00 -8°C° 0 mm 2 mps 604 mmHg 89%
    05:00 -8°C° 0 mm 2 mps 604 mmHg 89%
    06:00 -8°C° 0 mm 2 mps 605 mmHg 89%
    07:00 -6°C° 0 mm 2 mps 606 mmHg 87%
    08:00 -5°C° 0 mm 2 mps 607 mmHg 85%
    09:00 -4°C° 0 mm 2 mps 608 mmHg 83%
    10:00 -3°C° 0 mm 2 mps 608 mmHg 82%
    11:00 -2°C° 0 mm 2 mps 609 mmHg 82%
    12:00 -1°C° 0 mm 2 mps 609 mmHg 81%
    13:00 -1°C° 0 mm 2 mps 610 mmHg 81%
    14:00 -1°C° 0 mm 2 mps 610 mmHg 82%
    15:00 -1°C° 0 mm 2 mps 610 mmHg 82%
    16:00 -2°C° 0 mm 2 mps 610 mmHg 84%
    17:00 -2°C° 0 mm 1 mps 610 mmHg 87%
    18:00 -4°C° 0 mm 1 mps 609 mmHg 89%
    19:00 -4°C° 0 mm 1 mps 610 mmHg 88%
    20:00 -6°C° 0 mm 1 mps 610 mmHg 87%
    21:00 -6°C° 0 mm 1 mps 610 mmHg 85%
    22:00 -6°C° 0 mm 1 mps 610 mmHg 85%
    23:00 -6°C° 0 mm 1 mps 610 mmHg 85%
    Show more